Printer-friendly version

IAU Minor Planet Center

Minor Planet Center

MPEC 2006-U93 : 2006 UM216

The following Minor Planet Electronic Circular may be linked-to from your own Web pages, but must not otherwise be redistributed electronically.


Read MPEC 2006-U92 Read MPEC 2006-U94


M.P.E.C. 2006-U93                                Issued 2006 Oct. 30, 21:55 UT

     The Minor Planet Electronic Circulars contain information on unusual
         minor planets and routine data on comets.  They are published
   on behalf of Commission 20 of the International Astronomical Union by the
          Minor Planet Center, Smithsonian Astrophysical Observatory,
                          Cambridge, MA 02138, U.S.A.

             Prepared using the Tamkin Foundation Computer Network

                              MPC@CFA.HARVARD.EDU
          URL http://cfa-www.harvard.edu/iau/mpc.html  ISSN 1523-6714

                                  2006 UM216

Observations:
     K06UL6M* C2006 10 21.45534 09 00 58.93 +09 44 42.9          19.0 V EU093703
     K06UL6M  C2006 10 21.46532 09 00 59.97 +09 44 31.9          19.0 V EU093703
     K06UL6M  C2006 10 21.47603 09 01 01.09 +09 44 18.9          19.1 V EU093703
     K06UL6M  C2006 10 21.48610 09 01 02.13 +09 44 07.0          18.6 V EU093703
     K06UL6M  C2006 10 27.44741 09 11 03.68 +07 51 03.2          18.6   EU093704
     K06UL6M  C2006 10 27.45995 09 11 04.87 +07 50 48.9          18.6   EU093704
     K06UL6M  C2006 10 27.47209 09 11 05.99 +07 50 37.1          18.5   EU093704
     K06UL6M  C2006 10 27.48379 09 11 07.18 +07 50 23.0          18.6   EU093704
     K06UL6M  C2006 10 28.11111 09 12 06.88 +07 38 30.8          18.7 R EU093204
     K06UL6M  C2006 10 28.15855 09 12 11.32 +07 37 37.2                 EU093204
     K06UL6M  C2006 10 28.44549 09 12 38.42 +07 32 12.8          19.0 R EU093734
     K06UL6M  C2006 10 28.44848 09 12 38.70 +07 32 09.3          19.2 R EU093734
     K06UL6M  C2006 10 28.45141 09 12 38.96 +07 32 06.4          19.6 R EU093734
     K06UL6M  C2006 10 28.45433 09 12 39.22 +07 32 03.2          19.1 R EU093734
     K06UL6M  C2006 10 28.47230 09 12 40.96 +07 31 42.9          19.6 V EU093G96
     K06UL6M  C2006 10 28.48352 09 12 42.01 +07 31 30.5          19.8 V EU093G96
     K06UL6M  C2006 10 28.50025 09 12 43.56 +07 31 11.7          19.9 V EU093G96
     K06UL6M  C2006 10 28.51156 09 12 44.56 +07 30 58.8          19.9 V EU093G96
     K06UL6M  C2006 10 29.38971 09 14 06.56 +07 14 26.1          19.2 R EU093734
     K06UL6M  C2006 10 29.39264 09 14 06.85 +07 14 22.7          19.6 R EU093734
     K06UL6M  C2006 10 29.39557 09 14 07.06 +07 14 18.5          19.3 R EU093734
     K06UL6M  C2006 10 29.44037 09 14 11.25 +07 13 28.7          18.9 V EU093G96
     K06UL6M  C2006 10 29.44359 09 14 11.54 +07 13 25.7          19.4 V EU093G96
     K06UL6M  C2006 10 29.44683 09 14 11.83 +07 13 21.9          19.1 V EU093G96
     K06UL6M  C2006 10 29.45006 09 14 12.15 +07 13 18.2          19.3 V EU093G96
     K06UL6M  C2006 10 30.46913 09 15 45.34 +06 54 09.0                 EU093G96
     K06UL6M  C2006 10 30.47127 09 15 45.54 +06 54 06.4                 EU093G96
     K06UL6M  C2006 10 30.47348 09 15 45.74 +06 54 04.0                 EU093G96
     K06UL6M  C2006 10 30.47575 09 15 45.92 +06 54 01.8          19.8 V EU093G96
     K06UL6M 5C2006 10 30.50023 09 15 48.14 +06 53 34.3          19.8 R EU093673
     K06UL6M 5C2006 10 30.50508 09 15 48.61 +06 53 28.8                 EU093673
     K06UL6M 5C2006 10 30.51019 09 15 49.04 +06 53 23.2                 EU093673
     K06UL6M 5C2006 10 30.51551 09 15 49.52 +06 53 16.9                 EU093673

Observer details:
204 Schiaparelli Observatory.  Observer L. Buzzi.  0.60-m f/4.64 reflector
    + CCD.
673 Table Mountain Observatory, Wrightwood.  Observer J. Young.  0.61-m f/16
    Cassegrain + CCD.
703 Catalina Sky Survey.  Observer A. R. Gibbs.  Measurers E. C. Beshore,
    E. J. Christensen, G. J. Garradd, A. R. Gibbs, A. D. Grauer, R. E. Hill,
    R. A. Kowalski, S. M. Larson, R. H. McNaught.  0.68-m Schmidt + CCD.
704 Lincoln Laboratory ETS, New Mexico.  Observers M. Bezpalko, L. Manguso,
    D. Torres, R. Kracke, H. Love, G. Spitz, J. Kistler.  Measurers J. Stuart,
    J. Kommers.  1.0-m f/2.15 reflector + CCD.
734 Farpoint Observatory.  Observer G. Hug.  0.7-m reflector + CCD.
G96 Mt. Lemmon Survey.  Observers A. R. Gibbs, E. J. Christensen.  Measurers
    E. C. Beshore, E. J. Christensen, G. J. Garradd, A. R. Gibbs, A. D. Grauer,
    R. E. Hill, R. A. Kowalski, S. M. Larson, R. H. McNaught.  1.5-m reflector
    + CCD.

Orbital elements:
2006 UM216                                               Earth MOID = 0.3201 AU
Epoch 2006 Sept. 22.0 TT = JDT 2454000.5                MPC
M  12.77295              (2000.0)            P               Q
n   0.23428756     Peri.  144.49843     +0.78846586     -0.55966135
a   2.6059729      Node   251.52564     +0.48367646     +0.82042120
e   0.5098685      Incl.   15.60548     +0.37997194     +0.11699665
P   4.21           H   16.0           G   0.15           U   8
Residuals in seconds of arc
061021 703  0.1+  0.2+    061028 734  0.2+  0.4-    061029 G96  0.2-  0.1+
061021 703  0.0   0.6+    061028 734  0.0   0.0     061029 G96  0.3-  0.0
061021 703  0.0   0.2-    061028 734  0.1-  0.1+    061029 G96  0.1+  0.1-
061021 703  0.2-  0.7-    061028 G96  0.2-  0.4-    061030 G96  0.2-  0.1-
061027 704  0.2-  0.3-    061028 G96  0.0   0.1-    061030 G96  0.1-  0.3-
061027 704  0.1-  0.4-    061028 G96  0.1+  0.0     061030 G96  0.0   0.2-
061027 704  0.4-  1.5+    061028 G96  0.5-  0.2-    061030 G96  0.3-  0.1+
061027 704  0.9+  0.7+    061029 734  0.1-  0.3+    061030 673  0.1-  0.4+
061028 204  0.0   0.1+    061029 734  0.2+  0.2+    061030 673  0.5+  0.3+
061028 204  0.1+  0.0     061029 734  0.6-  0.7-    061030 673  0.1+  0.5+
061028 734  0.1+  0.3-    061029 G96  0.2-  0.5-    061030 673  0.2+  0.2+

Ephemeris:
2006 UM216               a,e,i = 2.61, 0.51, 16                  q = 1.2773
Date    TT    R. A. (2000) Decl.     Delta      r     Elong.  Phase     V
2006 10 22    09 01.93   +09 34.4    1.511    1.554    73.4    37.9    19.4
2006 11 01    09 18.03   +06 25.5    1.480    1.611    78.6    37.2    19.4
2006 11 11    09 31.23   +03 21.1    1.445    1.670    84.4    36.2    19.4
2006 11 21    09 41.37   +00 23.8    1.405    1.731    90.9    34.8    19.4
2006 12 01    09 48.19   -02 22.8    1.364    1.793    98.2    33.0    19.3
2006 12 11    09 51.46   -04 55.1    1.323    1.856   106.1    30.6    19.3
2006 12 21    09 50.92   -07 07.9    1.285    1.919   114.8    27.7    19.2
2006 12 31    09 46.51   -08 55.0    1.255    1.982   124.2    24.2    19.1
2007 01 10    09 38.53   -10 09.7    1.237    2.045   133.8    20.3    19.0
2007 01 20    09 27.73   -10 46.4    1.236    2.107   143.1    16.3    19.0
2007 01 30    09 15.41   -10 43.1    1.256    2.169   150.7    12.9    18.9
2007 02 09    09 03.19   -10 03.6    1.301    2.231   154.3    11.1    19.0
2007 02 19    08 52.52   -08 56.6    1.370    2.291   152.3    11.6    19.2
2007 03 01    08 44.50   -07 33.8    1.463    2.351   146.1    13.6    19.5
2007 03 11    08 39.62   -06 06.7    1.578    2.409   138.0    16.0    19.8
2007 03 21    08 37.90   -04 43.8    1.712    2.467   129.4    18.2    20.1
2007 03 31    08 39.10   -03 30.7    1.861    2.523   120.9    19.9    20.4
2007 04 10    08 42.81   -02 30.6    2.021    2.579   112.7    21.0    20.6
2007 04 20    08 48.60   -01 44.4    2.191    2.633   104.8    21.6    20.9
2007 04 30    08 56.10   -01 12.5    2.366    2.686    97.3    21.8    21.1
2007 05 10    09 04.93   -00 54.2    2.544    2.738    90.1    21.6    21.3
2007 05 20    09 14.81   -00 48.5    2.723    2.789    83.1    21.1    21.4
2007 05 30    09 25.51   -00 54.7    2.900    2.839    76.4    20.3    21.6
2007 06 09    09 36.82   -01 11.4    3.074    2.887    69.9    19.3    21.7
2007 06 19    09 48.59   -01 37.6    3.243    2.935    63.5    18.1    21.8

Timothy B. Spahr             (C) Copyright 2006 MPC           M.P.E.C. 2006-U93

Read MPEC 2006-U92 Read MPEC 2006-U94


Our Web policy. Index to the CBAT/MPC/ICQ pages.


Valid HTML 4.01!